Location: La Trinit�
(48.1620°N, 3.4512°W)
Time: 15:56:57
(UTC+00:00)

ATLAS 2AS CENTAUR R/B - Pass Details

Date: 08 May 2021
Orbit: 949 x 1263 km, 63.7° (Epoch: 07 May)

Event Time Altitude Azimuth Distance (km) Brightness Sun altitude
Rises 23:36:12 0° 318° (NW) 4,101 6.6 -24.0°
Reaches altitude 10° 23:39:03 10° 315° (NW) 3,093 5.8 -24.1°
Maximum altitude 23:46:17 61° 238° (WSW) 1,242 2.8 -24.3°
Enters shadow 23:47:56 49° 188° (S) 1,388 2.8 -24.3°
